Regional Weather Roundup
Issued by NWS Jackson, KY

Home | Current Version | Previous Version | Text Only | Print | Product List | Glossary On
Versions: 1 2 3 4 5 6 7 8 9 10 11 12 13 14 15 16 17 18 19 20 21 22 23 24 25 26 27
000
ASUS43 KJKL 231510
RWRJKL

EAST KENTUCKY HOURLY WEATHER ROUNDUP
NATIONAL WEATHER SERVICE JACKSON KY
1100 AM EDT MON OCT 23 2017

NOTE: "FAIR" INDICATES FEW OR NO CLOUDS BELOW 12,000 FEET WITH
NO SIGNIFICANT WEATHER AND/OR OBSTRUCTIONS TO VISIBILITY.

* THESE REPORTS ARE NOT UNDER NWS QUALITY CONTROL AND MAY NOT
  REPORT WEATHER SUCH AS PRECIPITATION AND FOG.

KYZ079-080-083-085-087-088-110-112-115-119-120-231600
...EASTERN KENTUCKY...

CITY           SKY/WX    TMP DP  RH WIND       PRES   REMARKS
JACKSON        RAIN      63  61  93 VRB5      29.85F FOG
LONDON         HVY RAIN  61  59  93 NW7       29.89R FOG
SOMERSET*      RAIN      57  57 100 E3        29.88S
MONTICELLO*    LGT RAIN  59  58  96 NW3       29.87F
WILLIAMSBURG*  CLOUDY    59  59 100 N7        29.88S
MIDDLESBORO*   HVY RAIN  64  64 100 W7        29.88R
HARLAN APT*    CLOUDY    63  61  94 CALM      29.85F
PIKE CO APT*   RAIN      62  62 100 SE8       29.89F
BIG SANDY APT* RAIN      63  63 100 SE7       29.88F
MOREHEAD APT*  LGT RAIN  63  61  94 VRB5G12   29.86F
$$

KYZ035-036-041-042-044-050-067-078-099-231600
...CENTRAL KENTUCKY...

CITY           SKY/WX    TMP DP  RH WIND       PRES   REMARKS
MT STERLING*   HVY RAIN  59  57  94 NW3       29.90F
FLEMING/MASON* RAIN      59  59  99 W15G29    29.87R
DANVILLE*      RAIN      57  55  94 E3        29.86F
LEXINGTON      LGT RAIN  61  57  87 S5        29.85F
FRANKFORT      LGT RAIN  62  58  86 S6        29.84S
LOUISVILLE     LGT RAIN  64  60  87 E14       29.72F
LEBANON*         N/A     59  57  94 NE9G16    29.79F
GLASGOW*       RAIN      60  60 100 SW6       29.83R
BOWLING GREEN  LGT RAIN  58  57  97 W13       29.84R FOG
$$

KYZ091>093-OHZ055-061-077-WVZ005-015-034-035-042-231600
...SOUTHERN OHIO/WEST VIRGINIA...

CITY           SKY/WX    TMP DP  RH WIND       PRES   REMARKS
COVINGTON      LGT RAIN  61  61 100 SW6       29.80F
COLUMBUS       RAIN      64  59  83 SE10      29.86F
DAYTON         LGT RAIN  63  60  90 SE16      29.80F
WILMINGTON     HVY RAIN  62  60  93 SE17G28   29.81F FOG
HUNTINGTON     RAIN      64  60  87 SE8       29.88F FOG
CHARLESTON     CLOUDY    63  60  90 E6        29.91F
PINEVILLE*     PTSUNNY   64  60  86 MISG      30.00F
BECKLEY        RAIN      60  57  89 SE17G26   29.99F FOG
BLUEFIELD      LGT RAIN  59  57  93 VRB7      30.02F FOG
LOGAN CO APT*  PTSUNNY   64  59  82 SE13G22   29.91F
$$

VAZ002-007-008-TNZ017-027-036-066-071-231600
...SOUTHWEST VIRGINIA/EAST TENNESSEE...

CITY           SKY/WX    TMP DP  RH WIND       PRES   REMARKS
WISE*          HVY RAIN  61  61 100 S6        29.95F
JONESVILLE*    LGT RAIN  63  63 100 CALM      29.88F
ABINGDON*      CLOUDY    67  62  85 SE6       29.93F
BRISTOL        LGT RAIN  64  64 100 N3        29.90F
MORRISTOWN*    PTSUNNY   64  63  94 E6        29.83F FOG
SEVIERVILLE*   PTSUNNY   64  64 100 CALM      29.80F
KNOXVILLE      HVY RAIN  61  61 100 NW18G26   29.84R VSB 1
LAFOLLETTE*    CLOUDY    61  59  94 CALM      29.90F FOG
OAK RIDGE      RAIN      62  62 100 NW3       29.86F FOG
CROSSVILLE     CLOUDY    59  57  93 CALM      29.85F
NASHVILLE      CLOUDY    58  55  90 W10       29.87S
$$

...KEY TO REMARKS...
VSB - VISIBILITY IN MILES
WCI - WIND CHILL INDEX
HX  - HEAT INDEX

$$




USA.gov is the U.S. government's official web portal to all federal, state and local government web resources and services.